Location: ?????????
(54.7630°N, 39.4991°E)
Time: 14:25:42
(UTC+00:00)

Cosmos 1818 - Pass Details

Date: 14 April 2026
Orbit: 774 x 797 km, 65.0° (Epoch: 16 May)

Event Time Altitude Azimuth Distance (km) Brightness Sun altitude
Rises 20:25:05 0° 311° (NW) 3,308 7.7 -24.5°
Reaches altitude 10° 20:27:34 10° 316° (NW) 2,377 6.8 -24.6°
Maximum altitude 20:32:56 54° 34° (NNE) 972 4.2 -24.8°
Enters shadow 20:35:10 33° 93° (E) 1,329 4.5 -24.8°
